Time,TemperatureF,DewpointF,PressureIn,WindDirection,WindDirectionDegrees,WindSpeedMPH,WindSpeedGustMPH,Humidity,HourlyPrecipIn,Conditions,Clouds,dailyrainin,SoftwareType,DateUTC
2013-05-05 00:24:00,43.8,38.0,30.96,ESE,112,0.9,1.5,79,0.00,,,0.00,TxWx,2013-05-05 04:24:00,
2013-05-05 00:29:00,43.6,38.0,30.96,ESE,112,4.5,4.8,80,0.00,,,0.00,TxWx,2013-05-05 04:29:00,
2013-05-05 00:35:00,43.4,37.0,30.96,ESE,110,3.6,3.9,80,0.00,,,0.00,TxWx,2013-05-05 04:35:00,
2013-05-05 00:40:00,43.2,37.0,30.96,East,84,2.4,2.4,81,0.00,,,0.00,TxWx,2013-05-05 04:40:00,
2013-05-05 00:45:00,43.0,38.0,30.96,ESE,113,3.3,3.3,81,0.00,,,0.00,TxWx,2013-05-05 04:45:00,
2013-05-05 00:50:00,42.9,38.0,30.96,East,83,2.4,2.4,82,0.00,,,0.00,TxWx,2013-05-05 04:50:00,
2013-05-05 00:56:00,42.7,38.0,30.95,ESE,112,4.2,4.5,82,0.00,,,0.00,TxWx,2013-05-05 04:56:00,
2013-05-05 01:01:00,42.6,38.0,30.95,ESE,111,3.0,3.0,83,0.00,,,0.00,TxWx,2013-05-05 05:01:00,
2013-05-05 01:06:00,42.5,38.0,30.96,ESE,113,2.4,2.4,83,0.00,,,0.00,TxWx,2013-05-05 05:06:00,
2013-05-05 01:11:00,42.4,37.0,30.96,ESE,120,3.6,4.2,83,0.00,,,0.00,TxWx,2013-05-05 05:11:00,
2013-05-05 01:16:00,42.3,37.0,30.95,SE,125,2.7,2.7,84,0.00,,,0.00,TxWx,2013-05-05 05:16:00,
2013-05-05 01:21:00,42.3,38.0,30.95,ESE,119,3.6,3.9,84,0.00,,,0.00,TxWx,2013-05-05 05:21:00,
2013-05-05 01:26:00,42.1,38.0,30.95,ESE,118,1.5,1.5,85,0.00,,,0.00,TxWx,2013-05-05 05:26:00,
2013-05-05 01:32:00,42.0,38.0,30.95,ESE,119,2.7,3.0,85,0.00,,,0.00,TxWx,2013-05-05 05:32:00,
2013-05-05 01:37:00,41.8,38.0,30.95,ESE,119,2.1,2.1,86,0.00,,,0.00,TxWx,2013-05-05 05:37:00,
2013-05-05 01:42:00,41.7,38.0,30.95,ESE,119,3.6,3.6,86,0.00,,,0.00,TxWx,2013-05-05 05:42:00,
2013-05-05 01:47:00,41.5,37.0,30.95,ESE,113,2.4,2.4,86,0.00,,,0.00,TxWx,2013-05-05 05:47:00,
2013-05-05 01:52:00,41.3,37.0,30.95,ESE,112,1.2,1.2,87,0.00,,,0.00,TxWx,2013-05-05 05:52:00,
2013-05-05 01:57:00,41.2,37.0,30.95,ESE,112,0.3,0.6,87,0.00,,,0.00,TxWx,2013-05-05 05:57:00,
2013-05-05 02:03:00,40.8,37.0,30.94,ESE,108,0.9,1.5,87,0.00,,,0.00,TxWx,2013-05-05 06:03:00,
2013-05-05 02:08:00,40.6,38.0,30.94,ESE,111,3.0,3.0,88,0.00,,,0.00,TxWx,2013-05-05 06:08:00,
2013-05-05 02:13:00,40.5,38.0,30.94,ESE,111,1.2,1.5,89,0.00,,,0.00,TxWx,2013-05-05 06:13:00,
2013-05-05 02:18:00,40.4,37.0,30.94,ESE,105,0.0,0.0,89,0.00,,,0.00,TxWx,2013-05-05 06:18:00,
2013-05-05 02:23:00,39.9,37.0,30.94,East,101,0.0,0.0,88,0.00,,,0.00,TxWx,2013-05-05 06:23:00,
2013-05-05 02:28:00,39.4,36.0,30.94,East,101,0.0,0.0,88,0.00,,,0.00,TxWx,2013-05-05 06:28:00,
2013-05-05 02:33:00,38.9,36.0,30.94,ESE,103,1.2,1.2,89,0.00,,,0.00,TxWx,2013-05-05 06:33:00,
2013-05-05 02:38:00,38.7,36.0,30.94,ESE,103,0.0,0.0,90,0.00,,,0.00,TxWx,2013-05-05 06:38:00,
2013-05-05 02:43:00,38.7,37.0,30.94,ESE,102,0.0,0.0,91,0.00,,,0.00,TxWx,2013-05-05 06:43:00,
2013-05-05 02:48:00,38.6,37.0,30.94,ESE,103,0.0,0.0,91,0.00,,,0.00,TxWx,2013-05-05 06:48:00,
2013-05-05 02:54:00,38.4,36.0,30.94,ESE,103,0.0,0.0,92,0.00,,,0.00,TxWx,2013-05-05 06:54:00,
2013-05-05 02:59:00,38.2,36.0,30.94,East,101,0.0,0.0,92,0.00,,,0.00,TxWx,2013-05-05 06:59:00,
2013-05-05 03:04:00,38.0,36.0,30.94,East,101,0.0,0.0,92,0.00,,,0.00,TxWx,2013-05-05 07:04:00,
2013-05-05 03:09:00,37.9,36.0,30.94,East,101,0.3,0.3,92,0.00,,,0.00,TxWx,2013-05-05 07:09:00,
2013-05-05 03:15:00,37.9,36.0,30.94,ESE,103,0.0,0.0,93,0.00,,,0.00,TxWx,2013-05-05 07:15:00,
2013-05-05 03:20:00,38.0,36.0,30.94,ESE,103,0.0,0.0,94,0.00,,,0.00,TxWx,2013-05-05 07:20:00,
2013-05-05 03:25:00,38.0,36.0,30.93,East,101,0.3,0.6,94,0.00,,,0.00,TxWx,2013-05-05 07:25:00,
2013-05-05 03:30:00,37.8,36.0,30.93,East,98,1.2,1.2,94,0.00,,,0.00,TxWx,2013-05-05 07:30:00,
2013-05-05 03:35:00,37.5,36.0,30.93,East,97,0.9,0.9,94,0.00,,,0.00,TxWx,2013-05-05 07:35:00,
2013-05-05 03:41:00,37.3,35.0,30.93,East,99,2.1,2.4,94,0.00,,,0.00,TxWx,2013-05-05 07:41:00,
2013-05-05 03:46:00,37.4,36.0,30.93,East,100,1.2,1.2,95,0.00,,,0.00,TxWx,2013-05-05 07:46:00,
2013-05-05 03:51:00,37.3,36.0,30.93,East,100,0.0,0.3,95,0.00,,,0.00,TxWx,2013-05-05 07:51:00,
2013-05-05 03:56:00,37.2,36.0,30.93,East,95,1.5,1.5,95,0.00,,,0.00,TxWx,2013-05-05 07:56:00,
2013-05-05 04:01:00,36.9,36.0,30.94,East,97,1.5,1.5,95,0.00,,,0.00,TxWx,2013-05-05 08:01:00,
2013-05-05 04:07:00,36.8,36.0,30.93,East,100,0.6,0.9,95,0.00,,,0.00,TxWx,2013-05-05 08:07:00,
2013-05-05 04:12:00,36.7,36.0,30.93,ESE,102,0.3,0.3,96,0.00,,,0.00,TxWx,2013-05-05 08:12:00,
2013-05-05 04:17:00,36.6,36.0,30.93,ESE,102,1.5,1.5,96,0.00,,,0.00,TxWx,2013-05-05 08:17:00,
2013-05-05 04:22:00,36.7,36.0,30.93,ESE,104,1.2,1.2,96,0.00,,,0.00,TxWx,2013-05-05 08:22:00,
2013-05-05 04:27:00,36.7,36.0,30.93,East,101,0.9,0.9,97,0.00,,,0.00,TxWx,2013-05-05 08:27:00,
2013-05-05 04:32:00,36.6,36.0,30.93,East,100,0.6,0.6,97,0.00,,,0.00,TxWx,2013-05-05 08:32:00,
2013-05-05 04:38:00,36.4,35.0,30.93,East,101,0.6,0.9,97,0.00,,,0.00,TxWx,2013-05-05 08:38:00,
2013-05-05 04:43:00,36.2,35.0,30.93,ESE,103,0.0,0.3,97,0.00,,,0.00,TxWx,2013-05-05 08:43:00,
2013-05-05 04:48:00,36.3,35.0,30.93,ESE,102,0.3,0.3,97,0.00,,,0.00,TxWx,2013-05-05 08:48:00,
2013-05-05 04:53:00,36.2,35.0,30.93,ESE,103,0.0,0.0,97,0.00,,,0.00,TxWx,2013-05-05 08:53:00,
2013-05-05 04:59:00,36.0,35.0,30.93,East,101,1.2,1.2,97,0.00,,,0.00,TxWx,2013-05-05 08:59:00,
2013-05-05 05:04:00,36.2,35.0,30.93,East,101,1.8,1.8,98,0.00,,,0.00,TxWx,2013-05-05 09:04:00,
2013-05-05 05:09:00,36.2,35.0,30.93,East,100,1.5,1.8,98,0.00,,,0.00,TxWx,2013-05-05 09:09:00,
2013-05-05 05:14:00,36.2,35.0,30.93,East,100,0.0,0.0,98,0.00,,,0.00,TxWx,2013-05-05 09:14:00,
2013-05-05 05:19:00,36.0,35.0,30.93,East,100,1.2,1.2,98,0.00,,,0.00,TxWx,2013-05-05 09:19:00,
2013-05-05 05:25:00,36.0,35.0,30.93,East,98,1.5,1.5,98,0.00,,,0.00,TxWx,2013-05-05 09:25:00,
2013-05-05 05:30:00,35.8,35.0,30.93,East,99,1.8,1.8,98,0.00,,,0.00,TxWx,2013-05-05 09:30:00,
2013-05-05 05:35:00,35.6,35.0,30.93,East,100,1.5,1.5,98,0.00,,,0.00,TxWx,2013-05-05 09:35:00,
2013-05-05 05:40:00,35.6,35.0,30.93,East,101,0.6,0.6,98,0.00,,,0.00,TxWx,2013-05-05 09:40:00,
2013-05-05 05:45:00,35.6,35.0,30.93,East,100,0.9,0.9,98,0.00,,,0.00,TxWx,2013-05-05 09:45:00,
2013-05-05 05:51:00,35.7,35.0,30.93,East,100,1.2,1.2,98,0.00,,,0.00,TxWx,2013-05-05 09:51:00,
2013-05-05 05:56:00,35.7,35.0,30.94,East,99,2.1,2.1,98,0.00,,,0.00,TxWx,2013-05-05 09:56:00,
2013-05-05 06:01:00,35.8,35.0,30.94,East,100,0.3,0.3,98,0.00,,,0.00,TxWx,2013-05-05 10:01:00,
2013-05-05 06:06:00,36.0,35.0,30.94,East,98,0.3,0.6,98,0.00,,,0.00,TxWx,2013-05-05 10:06:00,
2013-05-05 06:11:00,36.2,35.0,30.94,East,100,0.6,0.6,98,0.00,,,0.00,TxWx,2013-05-05 10:11:00,
2013-05-05 06:16:00,36.3,35.0,30.94,East,100,0.0,0.3,98,0.00,,,0.00,TxWx,2013-05-05 10:16:00,
2013-05-05 06:21:00,36.5,36.0,30.94,East,100,0.9,0.9,98,0.00,,,0.00,TxWx,2013-05-05 10:21:00,
2013-05-05 06:26:00,36.7,36.0,30.94,East,101,0.6,0.6,98,0.00,,,0.00,TxWx,2013-05-05 10:26:00,
2013-05-05 06:32:00,37.3,36.0,30.94,East,101,0.0,0.0,98,0.00,,,0.00,TxWx,2013-05-05 10:32:00,
2013-05-05 06:37:00,38.0,37.0,30.95,East,99,0.6,0.9,98,0.00,,,0.00,TxWx,2013-05-05 10:37:00,
2013-05-05 06:42:00,38.4,37.0,30.95,East,100,0.9,0.9,98,0.00,,,0.00,TxWx,2013-05-05 10:42:00,
2013-05-05 06:47:00,38.9,38.0,30.95,East,101,0.6,0.6,98,0.00,,,0.00,TxWx,2013-05-05 10:47:00,
2013-05-05 06:53:00,39.4,38.0,30.95,ESE,103,0.9,0.9,98,0.00,,,0.00,TxWx,2013-05-05 10:53:00,
2013-05-05 06:58:00,39.7,39.0,30.95,ESE,106,2.4,2.4,96,0.00,,,0.00,TxWx,2013-05-05 10:58:00,
2013-05-05 07:03:00,40.2,39.0,30.95,ESE,106,7.5,8.1,95,0.00,,,0.00,TxWx,2013-05-05 11:03:00,
2013-05-05 07:08:00,40.9,40.0,30.95,ESE,107,4.8,4.8,95,0.00,,,0.00,TxWx,2013-05-05 11:08:00,
2013-05-05 07:13:00,41.6,40.0,30.94,ESE,110,7.8,7.8,94,0.00,,,0.00,TxWx,2013-05-05 11:13:00,
2013-05-05 07:18:00,42.2,40.0,30.95,ESE,112,3.3,4.2,92,0.00,,,0.00,TxWx,2013-05-05 11:18:00,
2013-05-05 07:23:00,42.3,40.0,30.95,ESE,109,10.2,10.5,91,0.00,,,0.00,TxWx,2013-05-05 11:23:00,
2013-05-05 07:29:00,42.7,40.0,30.95,ESE,107,5.7,5.7,90,0.00,,,0.00,TxWx,2013-05-05 11:29:00,
2013-05-05 07:34:00,43.4,40.0,30.95,ESE,104,2.7,3.3,89,0.00,,,0.00,TxWx,2013-05-05 11:34:00,
2013-05-05 07:39:00,44.0,41.0,30.94,ESE,106,4.5,4.5,88,0.00,,,0.00,TxWx,2013-05-05 11:39:00,
2013-05-05 07:44:00,43.9,40.0,30.94,ESE,107,9.0,10.2,87,0.00,,,0.00,TxWx,2013-05-05 11:44:00,
2013-05-05 07:49:00,44.3,40.0,30.94,ESE,105,5.4,5.4,86,0.00,,,0.00,TxWx,2013-05-05 11:49:00,
2013-05-05 07:55:00,44.7,41.0,30.95,East,82,9.6,9.6,85,0.00,,,0.00,TxWx,2013-05-05 11:55:00,
2013-05-05 08:00:00,45.0,40.0,30.95,ESE,106,9.6,9.6,84,0.00,,,0.00,TxWx,2013-05-05 12:00:00,
2013-05-05 08:05:00,45.1,40.0,30.95,East,83,10.2,10.2,84,0.00,,,0.00,TxWx,2013-05-05 12:05:00,
2013-05-05 08:10:00,45.3,40.0,30.95,ESE,107,9.3,9.9,83,0.00,,,0.00,TxWx,2013-05-05 12:10:00,
2013-05-05 08:15:00,45.7,41.0,30.95,ESE,107,11.7,11.7,82,0.00,,,0.00,TxWx,2013-05-05 12:15:00,
2013-05-05 08:21:00,45.5,40.0,30.95,ESE,107,6.0,6.6,82,0.00,,,0.00,TxWx,2013-05-05 12:21:00,
2013-05-05 08:26:00,45.9,40.0,30.94,ESE,107,12.9,12.9,81,0.00,,,0.00,TxWx,2013-05-05 12:26:00,
2013-05-05 08:31:00,46.1,40.0,30.95,ESE,106,7.5,7.5,80,0.00,,,0.00,TxWx,2013-05-05 12:31:00,
2013-05-05 08:36:00,46.3,40.0,30.94,East,83,10.5,11.1,79,0.00,,,0.00,TxWx,2013-05-05 12:36:00,
2013-05-05 08:41:00,46.6,41.0,30.94,ESE,102,2.1,3.0,79,0.00,,,0.00,TxWx,2013-05-05 12:41:00,
2013-05-05 08:46:00,47.0,40.0,30.95,ESE,106,9.6,9.6,78,0.00,,,0.00,TxWx,2013-05-05 12:46:00,
2013-05-05 08:52:00,47.2,40.0,30.95,ESE,106,9.9,12.0,77,0.00,,,0.00,TxWx,2013-05-05 12:52:00,
2013-05-05 08:57:00,47.6,41.0,30.95,East,84,6.0,6.0,76,0.00,,,0.00,TxWx,2013-05-05 12:57:00,
2013-05-05 09:02:00,48.0,41.0,30.95,East,83,5.4,6.3,76,0.00,,,0.00,TxWx,2013-05-05 13:02:00,
2013-05-05 09:07:00,48.3,40.0,30.95,ESE,106,3.6,4.2,74,0.00,,,0.00,TxWx,2013-05-05 13:07:00,
2013-05-05 09:13:00,49.0,40.0,30.94,ESE,109,10.2,10.2,72,0.00,,,0.00,TxWx,2013-05-05 13:13:00,
2013-05-05 09:18:00,48.9,40.0,30.94,East,88,3.0,3.0,71,0.00,,,0.00,TxWx,2013-05-05 13:18:00,
2013-05-05 09:23:00,50.0,41.0,30.94,ESE,113,8.7,9.6,70,0.00,,,0.00,TxWx,2013-05-05 13:23:00,
2013-05-05 09:28:00,49.2,39.0,30.94,ESE,112,12.3,12.6,68,0.00,,,0.00,TxWx,2013-05-05 13:28:00,
2013-05-05 09:33:00,50.1,40.0,30.94,ESE,109,2.4,3.6,69,0.00,,,0.00,TxWx,2013-05-05 13:33:00,
2013-05-05 09:38:00,50.3,40.0,30.94,ESE,109,5.4,5.4,69,0.00,,,0.00,TxWx,2013-05-05 13:38:00,
2013-05-05 09:43:00,50.7,40.0,30.94,ESE,107,1.5,1.8,67,0.00,,,0.00,TxWx,2013-05-05 13:43:00,
2013-05-05 09:49:00,50.3,39.0,30.94,ESE,110,8.1,8.1,67,0.00,,,0.00,TxWx,2013-05-05 13:49:00,
2013-05-05 09:54:00,50.5,40.0,30.94,ESE,109,11.7,11.7,66,0.00,,,0.00,TxWx,2013-05-05 13:54:00,
2013-05-05 09:59:00,50.3,39.0,30.94,East,84,7.5,7.8,66,0.00,,,0.00,TxWx,2013-05-05 13:59:00,
2013-05-05 10:05:00,51.0,40.0,30.94,ESE,110,9.9,9.9,66,0.00,,,0.00,TxWx,2013-05-05 14:05:00,
2013-05-05 10:10:00,51.3,40.0,30.94,ESE,108,11.1,11.1,66,0.00,,,0.00,TxWx,2013-05-05 14:10:00,
2013-05-05 10:15:00,51.3,40.0,30.94,ESE,105,4.5,4.5,65,0.00,,,0.00,TxWx,2013-05-05 14:15:00,
2013-05-05 10:20:00,51.2,39.0,30.94,East,85,3.9,4.2,64,0.00,,,0.00,TxWx,2013-05-05 14:20:00,
2013-05-05 10:25:00,52.5,41.0,30.94,ESE,109,6.6,6.6,63,0.00,,,0.00,TxWx,2013-05-05 14:25:00,
2013-05-05 10:30:00,52.8,40.0,30.93,East,83,10.8,10.8,61,0.00,,,0.00,TxWx,2013-05-05 14:30:00,
2013-05-05 10:35:00,52.0,39.0,30.93,ESE,106,4.8,4.8,61,0.00,,,0.00,TxWx,2013-05-05 14:35:00,
2013-05-05 10:40:00,52.7,40.0,30.93,ESE,107,6.9,7.8,61,0.00,,,0.00,TxWx,2013-05-05 14:40:00,
2013-05-05 10:46:00,52.9,39.0,30.93,ESE,112,12.9,12.9,60,0.00,,,0.00,TxWx,2013-05-05 14:46:00,
2013-05-05 10:51:00,53.6,40.0,30.93,ESE,113,7.2,8.7,59,0.00,,,0.00,TxWx,2013-05-05 14:51:00,
2013-05-05 10:56:00,54.1,40.0,30.93,East,87,6.9,7.5,59,0.00,,,0.00,TxWx,2013-05-05 14:56:00,
2013-05-05 11:01:00,55.4,40.0,30.93,ESE,114,2.4,2.7,57,0.00,,,0.00,TxWx,2013-05-05 15:01:00,
2013-05-05 11:06:00,56.0,40.0,30.93,ESE,120,7.2,8.7,56,0.00,,,0.00,TxWx,2013-05-05 15:06:00,
2013-05-05 11:11:00,54.6,39.0,30.92,ESE,116,5.4,6.9,55,0.00,,,0.00,TxWx,2013-05-05 15:11:00,
2013-05-05 11:16:00,54.9,39.0,30.92,ESE,115,5.4,5.7,55,0.00,,,0.00,TxWx,2013-05-05 15:16:00,
2013-05-05 11:22:00,56.2,39.0,30.92,ESE,118,2.1,2.1,54,0.00,,,0.00,TxWx,2013-05-05 15:22:00,
2013-05-05 11:27:00,56.4,38.0,30.92,ESE,117,4.5,4.5,52,0.00,,,0.00,TxWx,2013-05-05 15:27:00,
2013-05-05 11:32:00,56.7,39.0,30.92,East,90,3.3,4.2,51,0.00,,,0.00,TxWx,2013-05-05 15:32:00,
2013-05-05 11:38:00,57.6,39.0,30.92,East,96,9.9,9.9,50,0.00,,,0.00,TxWx,2013-05-05 15:38:00,
2013-05-05 11:43:00,57.6,39.0,30.92,East,84,4.2,4.5,50,0.00,,,0.00,TxWx,2013-05-05 15:43:00,
2013-05-05 11:48:00,57.7,39.0,30.92,ESE,113,6.6,7.5,49,0.00,,,0.00,TxWx,2013-05-05 15:48:00,
2013-05-05 11:53:00,57.3,38.0,30.92,East,83,5.1,5.1,49,0.00,,,0.00,TxWx,2013-05-05 15:53:00,
2013-05-05 11:58:00,57.4,38.0,30.92,ESE,113,5.4,5.4,49,0.00,,,0.00,TxWx,2013-05-05 15:58:00,
2013-05-05 12:03:00,57.5,39.0,30.91,ESE,108,0.6,0.9,50,0.00,,,0.00,TxWx,2013-05-05 16:03:00,
2013-05-05 12:08:00,59.2,40.0,30.91,ESE,121,7.2,7.8,49,0.00,,,0.00,TxWx,2013-05-05 16:08:00,
2013-05-05 12:13:00,59.2,39.0,30.91,ESE,112,4.2,4.8,48,0.00,,,0.00,TxWx,2013-05-05 16:13:00,
2013-05-05 12:19:00,58.6,40.0,30.91,ESE,115,6.6,7.2,49,0.00,,,0.00,TxWx,2013-05-05 16:19:00,
2013-05-05 12:24:00,59.0,39.0,30.90,ESE,117,3.0,3.0,48,0.00,,,0.00,TxWx,2013-05-05 16:24:00,
2013-05-05 12:29:00,59.4,38.0,30.90,East,82,7.2,7.8,45,0.00,,,0.00,TxWx,2013-05-05 16:29:00,
2013-05-05 12:34:00,59.8,38.0,30.90,ESE,121,4.5,4.8,44,0.00,,,0.00,TxWx,2013-05-05 16:34:00,
2013-05-05 12:39:00,59.9,38.0,30.90,ESE,116,9.6,9.6,44,0.00,,,0.00,TxWx,2013-05-05 16:39:00,
2013-05-05 12:45:00,60.8,38.0,30.90,ESE,120,7.2,7.2,43,0.00,,,0.00,TxWx,2013-05-05 16:45:00,
2013-05-05 12:50:00,60.9,38.0,30.90,ESE,118,6.3,6.3,43,0.00,,,0.00,TxWx,2013-05-05 16:50:00,
2013-05-05 12:55:00,60.7,38.0,30.90,ESE,119,5.4,6.0,43,0.00,,,0.00,TxWx,2013-05-05 16:55:00,
2013-05-05 13:00:00,61.1,38.0,30.90,East,86,6.9,7.5,43,0.00,,,0.00,TxWx,2013-05-05 17:00:00,
2013-05-05 13:05:00,61.5,38.0,30.90,East,85,7.2,7.2,42,0.00,,,0.00,TxWx,2013-05-05 17:05:00,
2013-05-05 13:10:00,63.2,39.0,30.89,ESE,105,4.2,4.2,41,0.00,,,0.00,TxWx,2013-05-05 17:10:00,
2013-05-05 13:16:00,63.4,38.0,30.89,ESE,115,1.8,1.8,40,0.00,,,0.00,TxWx,2013-05-05 17:16:00,
2013-05-05 13:21:00,61.9,37.0,30.89,East,87,12.0,12.0,40,0.00,,,0.00,TxWx,2013-05-05 17:21:00,
2013-05-05 13:26:00,61.8,39.0,30.89,East,94,10.5,12.3,42,0.00,,,0.00,TxWx,2013-05-05 17:26:00,
2013-05-05 13:31:00,61.3,38.0,30.89,East,87,7.5,9.3,43,0.00,,,0.00,TxWx,2013-05-05 17:31:00,
2013-05-05 13:36:00,62.8,39.0,30.89,East,89,7.8,9.3,42,0.00,,,0.00,TxWx,2013-05-05 17:36:00,
2013-05-05 13:42:00,62.6,43.0,30.89,ESE,104,1.8,1.8,48,0.00,,,0.00,TxWx,2013-05-05 17:42:00,
2013-05-05 13:47:00,61.3,40.0,30.89,East,92,4.5,4.5,47,0.00,,,0.00,TxWx,2013-05-05 17:47:00,
2013-05-05 13:52:00,62.4,41.0,30.89,East,100,6.6,6.6,47,0.00,,,0.00,TxWx,2013-05-05 17:52:00,
2013-05-05 13:57:00,61.9,41.0,30.89,East,98,8.1,9.9,46,0.00,,,0.00,TxWx,2013-05-05 17:57:00,
2013-05-05 14:03:00,60.6,43.0,30.89,East,93,10.8,11.7,52,0.00,,,0.00,TxWx,2013-05-05 18:03:00,
2013-05-05 14:08:00,61.1,42.0,30.89,East,94,9.3,9.3,50,0.00,,,0.00,TxWx,2013-05-05 18:08:00,
2013-05-05 14:13:00,61.6,44.0,30.88,East,97,9.0,9.0,52,0.00,,,0.00,TxWx,2013-05-05 18:13:00,
2013-05-05 14:18:00,60.1,42.0,30.88,East,99,10.5,10.5,51,0.00,,,0.00,TxWx,2013-05-05 18:18:00,
2013-05-05 14:24:00,60.9,43.0,30.88,East,95,13.8,13.8,52,0.00,,,0.00,TxWx,2013-05-05 18:24:00,
2013-05-05 14:29:00,59.2,42.0,30.88,East,97,16.2,16.2,53,0.00,,,0.00,TxWx,2013-05-05 18:29:00,
2013-05-05 14:34:00,59.3,42.0,30.88,East,96,8.1,8.4,53,0.00,,,0.00,TxWx,2013-05-05 18:34:00,
2013-05-05 14:40:00,59.5,42.0,30.88,East,98,11.4,12.0,54,0.00,,,0.00,TxWx,2013-05-05 18:40:00,
2013-05-05 14:45:00,59.2,42.0,30.88,East,93,6.9,7.8,54,0.00,,,0.00,TxWx,2013-05-05 18:45:00,
2013-05-05 14:50:00,59.5,44.0,30.88,East,99,12.0,12.0,55,0.00,,,0.00,TxWx,2013-05-05 18:50:00,
2013-05-05 14:55:00,59.3,43.0,30.88,East,97,9.0,9.6,56,0.00,,,0.00,TxWx,2013-05-05 18:55:00,
2013-05-05 15:00:00,59.6,44.0,30.88,East,96,15.0,15.0,56,0.00,,,0.00,TxWx,2013-05-05 19:00:00,
2013-05-05 15:06:00,58.0,43.0,30.88,East,96,10.8,11.1,57,0.00,,,0.00,TxWx,2013-05-05 19:06:00,
2013-05-05 15:11:00,58.2,43.0,30.88,East,93,10.8,11.7,57,0.00,,,0.00,TxWx,2013-05-05 19:11:00,
2013-05-05 15:16:00,58.0,44.0,30.88,East,96,10.8,10.8,59,0.00,,,0.00,TxWx,2013-05-05 19:16:00,
2013-05-05 15:21:00,58.6,44.0,30.88,East,92,9.6,9.9,59,0.00,,,0.00,TxWx,2013-05-05 19:21:00,
2013-05-05 15:26:00,57.6,43.0,30.87,East,95,10.5,10.5,59,0.00,,,0.00,TxWx,2013-05-05 19:26:00,
2013-05-05 15:32:00,57.4,43.0,30.87,East,91,11.7,12.0,59,0.00,,,0.00,TxWx,2013-05-05 19:32:00,
2013-05-05 15:37:00,56.6,43.0,30.87,East,92,9.0,9.6,59,0.00,,,0.00,TxWx,2013-05-05 19:37:00,
2013-05-05 15:42:00,57.2,43.0,30.87,East,94,10.8,11.7,60,0.00,,,0.00,TxWx,2013-05-05 19:42:00,
2013-05-05 15:47:00,57.7,44.0,30.87,East,95,9.0,9.3,59,0.00,,,0.00,TxWx,2013-05-05 19:47:00,
2013-05-05 15:52:00,58.0,44.0,30.87,East,95,12.3,12.3,59,0.00,,,0.00,TxWx,2013-05-05 19:52:00,
2013-05-05 15:57:00,57.4,43.0,30.87,East,95,6.9,6.9,59,0.00,,,0.00,TxWx,2013-05-05 19:57:00,
2013-05-05 16:02:00,58.6,44.0,30.87,East,94,10.2,12.9,59,0.00,,,0.00,TxWx,2013-05-05 20:02:00,
2013-05-05 16:03:00,48.4,43.0,30.91,East,98,0.6,0.9,84,0.00,,,0.00,TxWx,2013-05-05 20:03:00,
2013-05-05 16:04:00,48.4,43.0,30.91,East,92,2.7,2.7,84,0.00,,,0.00,TxWx,2013-05-05 20:04:00,
2013-05-05 16:05:00,48.4,43.0,30.91,East,90,1.2,1.2,84,0.00,,,0.00,TxWx,2013-05-05 20:05:00,
2013-05-05 16:06:00,48.4,43.0,30.91,ESE,102,0.3,0.3,84,0.00,,,0.00,TxWx,2013-05-05 20:06:00,
2013-05-05 16:07:00,58.2,43.0,30.87,East,96,12.0,14.1,58,0.00,,,0.00,TxWx,2013-05-05 20:07:00,
2013-05-05 16:08:00,48.5,44.0,30.91,ESE,102,0.0,0.0,84,0.00,,,0.00,TxWx,2013-05-05 20:08:00,
2013-05-05 16:09:00,48.4,43.0,30.91,East,82,3.9,4.5,84,0.00,,,0.00,TxWx,2013-05-05 20:09:00,
2013-05-05 16:10:00,48.3,43.0,30.91,East,82,1.8,1.8,84,0.00,,,0.00,TxWx,2013-05-05 20:10:00,
2013-05-05 16:11:00,48.4,43.0,30.91,East,84,1.2,1.2,84,0.00,,,0.00,TxWx,2013-05-05 20:11:00,
2013-05-05 16:12:00,58.9,44.0,30.87,East,94,10.5,12.6,58,0.00,,,0.00,TxWx,2013-05-05 20:12:00,
2013-05-05 16:13:00,48.5,43.0,30.91,East,84,1.2,1.2,84,0.00,,,0.00,TxWx,2013-05-05 20:13:00,
2013-05-05 16:14:00,48.5,43.0,30.91,East,88,0.3,0.3,84,0.00,,,0.00,TxWx,2013-05-05 20:14:00,
2013-05-05 16:15:00,48.4,43.0,30.91,East,85,2.4,2.4,84,0.00,,,0.00,TxWx,2013-05-05 20:15:00,
2013-05-05 16:16:00,48.4,43.0,30.91,East,95,2.1,2.1,84,0.00,,,0.00,TxWx,2013-05-05 20:16:00,
2013-05-05 16:17:00,48.4,43.0,30.91,East,85,1.5,1.5,84,0.00,,,0.00,TxWx,2013-05-05 20:17:00,
2013-05-05 16:18:00,58.2,43.0,30.87,East,93,3.9,3.9,58,0.00,,,0.00,TxWx,2013-05-05 20:18:00,
2013-05-05 16:19:00,48.5,43.0,30.91,ESE,110,1.5,1.8,84,0.00,,,0.00,TxWx,2013-05-05 20:19:00,
2013-05-05 16:20:00,48.3,43.0,30.91,East,83,2.7,3.0,84,0.00,,,0.00,TxWx,2013-05-05 20:20:00,
2013-05-05 16:21:00,48.3,43.0,30.91,East,82,3.3,3.3,83,0.00,,,0.00,TxWx,2013-05-05 20:21:00,
2013-05-05 16:22:00,48.4,43.0,30.91,East,91,1.5,1.5,84,0.00,,,0.00,TxWx,2013-05-05 20:22:00,
2013-05-05 16:23:00,57.4,42.0,30.87,East,98,10.8,10.8,57,0.00,,,0.00,TxWx,2013-05-05 20:23:00,
2013-05-05 16:24:00,48.4,43.0,30.91,East,91,4.2,4.2,84,0.00,,,0.00,TxWx,2013-05-05 20:24:00,
2013-05-05 16:25:00,48.2,43.0,30.90,East,87,5.4,6.0,83,0.00,,,0.00,TxWx,2013-05-05 20:25:00,
2013-05-05 16:26:00,48.2,43.0,30.91,East,90,5.4,6.3,83,0.00,,,0.00,TxWx,2013-05-05 20:26:00,
2013-05-05 16:27:00,48.2,43.0,30.91,East,91,4.5,4.5,83,0.00,,,0.00,TxWx,2013-05-05 20:27:00,
2013-05-05 16:28:00,57.7,43.0,30.86,East,95,11.1,11.7,58,0.00,,,0.00,TxWx,2013-05-05 20:28:00,
2013-05-05 16:29:00,48.3,43.0,30.91,East,88,3.3,3.6,83,0.00,,,0.00,TxWx,2013-05-05 20:29:00,
2013-05-05 16:30:00,48.4,43.0,30.91,East,93,0.9,1.2,83,0.00,,,0.00,TxWx,2013-05-05 20:30:00,
2013-05-05 16:31:00,48.2,43.0,30.90,East,90,5.1,5.1,83,0.00,,,0.00,TxWx,2013-05-05 20:31:00,
2013-05-05 16:32:00,48.1,43.0,30.90,East,93,3.9,4.5,83,0.00,,,0.00,TxWx,2013-05-05 20:32:00,
2013-05-05 16:33:00,57.7,44.0,30.86,East,93,9.0,9.0,59,0.00,,,0.00,TxWx,2013-05-05 20:33:00,
2013-05-05 16:35:00,48.2,43.0,30.90,East,89,6.3,6.3,83,0.00,,,0.00,TxWx,2013-05-05 20:35:00,
2013-05-05 16:36:00,48.2,43.0,30.90,East,91,5.1,5.1,83,0.00,,,0.00,TxWx,2013-05-05 20:36:00,
2013-05-05 16:38:00,57.9,43.0,30.86,East,93,12.0,12.0,58,0.00,,,0.00,TxWx,2013-05-05 20:38:00,
2013-05-05 16:39:00,48.1,43.0,30.90,East,90,2.4,2.4,83,0.00,,,0.00,TxWx,2013-05-05 20:39:00,
2013-05-05 16:40:00,48.2,43.0,30.90,East,88,1.8,2.1,83,0.00,,,0.00,TxWx,2013-05-05 20:40:00,
2013-05-05 16:41:00,48.2,43.0,30.90,East,87,3.0,3.3,83,0.00,,,0.00,TxWx,2013-05-05 20:41:00,
2013-05-05 16:42:00,48.2,43.0,30.90,East,84,2.4,3.0,83,0.00,,,0.00,TxWx,2013-05-05 20:42:00,
2013-05-05 16:43:00,57.0,42.0,30.86,East,96,13.8,13.8,58,0.00,,,0.00,TxWx,2013-05-05 20:43:00,
2013-05-05 16:48:00,57.1,43.0,30.86,East,98,9.0,12.0,59,0.00,,,0.00,TxWx,2013-05-05 20:48:00,
2013-05-05 16:53:00,56.6,43.0,30.86,East,97,17.4,20.1,59,0.00,,,0.00,TxWx,2013-05-05 20:53:00,
2013-05-05 16:59:00,56.9,43.0,30.86,East,92,8.1,8.4,60,0.00,,,0.00,TxWx,2013-05-05 20:59:00,
2013-05-05 17:04:00,56.2,42.0,30.86,East,95,12.0,12.6,60,0.00,,,0.00,TxWx,2013-05-05 21:04:00,
2013-05-05 17:09:00,56.9,43.0,30.86,East,97,8.1,8.1,61,0.00,,,0.00,TxWx,2013-05-05 21:09:00,
2013-05-05 17:14:00,56.0,42.0,30.86,East,97,16.8,16.8,60,0.00,,,0.00,TxWx,2013-05-05 21:14:00,
2013-05-05 17:19:00,56.0,43.0,30.86,East,92,10.2,11.7,62,0.00,,,0.00,TxWx,2013-05-05 21:19:00,
2013-05-05 17:25:00,55.0,42.0,30.87,East,94,12.9,14.4,62,0.00,,,0.00,TxWx,2013-05-05 21:25:00,
2013-05-05 17:30:00,54.5,42.0,30.87,East,95,15.0,15.0,63,0.00,,,0.00,TxWx,2013-05-05 21:30:00,
2013-05-05 17:35:00,54.4,42.0,30.87,East,98,13.5,13.5,64,0.00,,,0.00,TxWx,2013-05-05 21:35:00,
2013-05-05 17:40:00,54.5,43.0,30.87,East,96,8.4,8.4,64,0.00,,,0.00,TxWx,2013-05-05 21:40:00,
2013-05-05 17:45:00,53.9,42.0,30.87,East,93,12.6,12.6,65,0.00,,,0.00,TxWx,2013-05-05 21:45:00,
2013-05-05 17:51:00,53.8,42.0,30.87,East,95,9.3,11.1,65,0.00,,,0.00,TxWx,2013-05-05 21:51:00,
2013-05-05 17:56:00,53.8,42.0,30.88,East,92,9.6,10.5,65,0.00,,,0.00,TxWx,2013-05-05 21:56:00,
2013-05-05 18:01:00,54.1,42.0,30.88,East,90,9.6,9.9,64,0.00,,,0.00,TxWx,2013-05-05 22:01:00,
2013-05-05 18:06:00,53.5,41.0,30.88,East,94,16.8,17.4,63,0.00,,,0.00,TxWx,2013-05-05 22:06:00,
2013-05-05 18:11:00,53.3,41.0,30.88,East,93,11.7,12.0,65,0.00,,,0.00,TxWx,2013-05-05 22:11:00,
2013-05-05 18:16:00,53.3,42.0,30.88,East,94,12.6,14.4,65,0.00,,,0.00,TxWx,2013-05-05 22:16:00,
2013-05-05 18:22:00,53.1,42.0,30.88,East,96,11.4,11.4,65,0.00,,,0.00,TxWx,2013-05-05 22:22:00,
2013-05-05 18:27:00,53.0,42.0,30.88,East,93,10.2,10.5,65,0.00,,,0.00,TxWx,2013-05-05 22:27:00,
2013-05-05 18:32:00,52.7,42.0,30.88,East,95,7.5,7.5,65,0.00,,,0.00,TxWx,2013-05-05 22:32:00,
2013-05-05 18:37:00,52.6,42.0,30.88,East,96,11.4,11.4,66,0.00,,,0.00,TxWx,2013-05-05 22:37:00,
2013-05-05 18:43:00,52.5,42.0,30.88,East,94,12.6,13.2,66,0.00,,,0.00,TxWx,2013-05-05 22:43:00,
2013-05-05 18:48:00,52.2,41.0,30.88,East,93,10.5,10.8,67,0.00,,,0.00,TxWx,2013-05-05 22:48:00,
2013-05-05 18:53:00,52.1,41.0,30.88,East,95,9.0,9.0,67,0.00,,,0.00,TxWx,2013-05-05 22:53:00,
2013-05-05 18:58:00,52.3,42.0,30.88,East,97,5.4,5.4,68,0.00,,,0.00,TxWx,2013-05-05 22:58:00,
2013-05-05 19:04:00,51.9,42.0,30.88,East,95,5.1,6.3,68,0.00,,,0.00,TxWx,2013-05-05 23:04:00,
2013-05-05 19:09:00,51.7,42.0,30.89,East,94,9.3,9.3,68,0.00,,,0.00,TxWx,2013-05-05 23:09:00,
2013-05-05 19:14:00,51.6,42.0,30.89,East,96,7.2,7.8,69,0.00,,,0.00,TxWx,2013-05-05 23:14:00,
2013-05-05 19:19:00,51.4,42.0,30.89,East,95,7.2,7.2,70,0.00,,,0.00,TxWx,2013-05-05 23:19:00,
2013-05-05 19:24:00,51.4,42.0,30.89,East,97,6.9,6.9,71,0.00,,,0.00,TxWx,2013-05-05 23:24:00,
2013-05-05 19:30:00,50.9,42.0,30.89,East,94,10.8,10.8,72,0.00,,,0.00,TxWx,2013-05-05 23:30:00,
2013-05-05 19:35:00,50.7,43.0,30.89,East,96,8.1,8.7,73,0.00,,,0.00,TxWx,2013-05-05 23:35:00,
2013-05-05 19:40:00,50.4,42.0,30.89,East,96,9.9,9.9,74,0.00,,,0.00,TxWx,2013-05-05 23:40:00,
2013-05-05 19:45:00,50.1,43.0,30.89,East,95,10.5,10.8,76,0.00,,,0.00,TxWx,2013-05-05 23:45:00,
2013-05-05 19:50:00,49.7,43.0,30.90,East,96,7.8,7.8,77,0.00,,,0.00,TxWx,2013-05-05 23:50:00,
2013-05-05 19:56:00,49.4,43.0,30.90,East,93,12.0,12.3,79,0.00,,,0.00,TxWx,2013-05-05 23:56:00,
2013-05-05 20:01:00,49.2,43.0,30.90,East,92,10.8,12.3,80,0.00,,,0.00,TxWx,2013-05-06 00:01:00,
2013-05-05 20:06:00,48.9,44.0,30.90,East,90,7.8,7.8,82,0.00,,,0.00,TxWx,2013-05-06 00:06:00,
2013-05-05 20:11:00,48.7,44.0,30.90,East,93,6.0,6.6,83,0.00,,,0.00,TxWx,2013-05-06 00:11:00,
2013-05-05 20:16:00,48.5,44.0,30.90,East,93,6.9,6.9,84,0.00,,,0.00,TxWx,2013-05-06 00:16:00,
2013-05-05 20:22:00,48.3,43.0,30.90,East,92,5.7,5.7,84,0.00,,,0.00,TxWx,2013-05-06 00:22:00,
2013-05-05 20:27:00,48.3,44.0,30.90,East,90,5.4,5.7,85,0.00,,,0.00,TxWx,2013-05-06 00:27:00,
2013-05-05 20:32:00,48.3,44.0,30.91,East,91,6.0,6.6,85,0.00,,,0.00,TxWx,2013-05-06 00:32:00,
2013-05-05 20:38:00,48.2,44.0,30.91,East,94,6.0,6.0,86,0.00,,,0.00,TxWx,2013-05-06 00:38:00,
2013-05-05 20:43:00,48.0,44.0,30.91,East,93,3.0,3.0,86,0.00,,,0.00,TxWx,2013-05-06 00:43:00,
2013-05-05 20:48:00,47.9,44.0,30.91,East,94,4.8,5.4,86,0.00,,,0.00,TxWx,2013-05-06 00:48:00,
2013-05-05 20:53:00,47.9,44.0,30.91,East,95,3.3,3.3,87,0.00,,,0.00,TxWx,2013-05-06 00:53:00,
2013-05-05 20:58:00,47.9,44.0,30.91,East,92,3.0,3.0,87,0.00,,,0.00,TxWx,2013-05-06 00:58:00,
2013-05-05 21:03:00,48.1,44.0,30.91,East,88,2.1,3.0,87,0.00,,,0.00,TxWx,2013-05-06 01:03:00,
2013-05-05 21:08:00,48.2,44.0,30.91,East,89,6.9,7.5,87,0.00,,,0.00,TxWx,2013-05-06 01:08:00,
2013-05-05 21:14:00,48.3,44.0,30.92,East,93,7.5,7.8,87,0.00,,,0.00,TxWx,2013-05-06 01:14:00,
2013-05-05 21:19:00,48.4,44.0,30.92,East,93,1.5,1.8,86,0.00,,,0.00,TxWx,2013-05-06 01:19:00,
2013-05-05 21:24:00,48.0,44.0,30.92,East,90,4.8,6.0,86,0.00,,,0.00,TxWx,2013-05-06 01:24:00,
2013-05-05 21:29:00,48.1,44.0,30.92,East,89,3.0,3.3,86,0.00,,,0.00,TxWx,2013-05-06 01:29:00,
2013-05-05 21:34:00,48.0,44.0,30.92,East,89,6.3,6.3,86,0.00,,,0.00,TxWx,2013-05-06 01:34:00,
2013-05-05 21:39:00,47.9,44.0,30.93,East,91,4.2,4.2,86,0.00,,,0.00,TxWx,2013-05-06 01:39:00,
2013-05-05 21:45:00,47.9,44.0,30.93,East,88,4.8,5.4,86,0.00,,,0.00,TxWx,2013-05-06 01:45:00,
2013-05-05 21:50:00,48.1,44.0,30.93,East,93,6.9,6.9,86,0.00,,,0.00,TxWx,2013-05-06 01:50:00,
2013-05-05 21:55:00,48.1,44.0,30.93,East,91,4.5,4.5,86,0.00,,,0.00,TxWx,2013-05-06 01:55:00,
2013-05-05 22:00:00,48.2,44.0,30.93,East,91,3.0,3.0,86,0.00,,,0.00,TxWx,2013-05-06 02:00:00,
2013-05-05 22:05:00,48.1,44.0,30.92,East,93,6.6,7.8,85,0.00,,,0.00,TxWx,2013-05-06 02:05:00,
2013-05-05 22:11:00,48.1,44.0,30.93,East,93,4.2,4.2,86,0.00,,,0.00,TxWx,2013-05-06 02:11:00,
2013-05-05 22:16:00,48.2,44.0,30.92,East,88,3.9,3.9,86,0.00,,,0.00,TxWx,2013-05-06 02:16:00,
2013-05-05 22:21:00,48.3,44.0,30.92,East,90,1.5,1.5,86,0.00,,,0.00,TxWx,2013-05-06 02:21:00,
2013-05-05 22:26:00,48.2,44.0,30.92,East,88,5.4,6.6,86,0.00,,,0.00,TxWx,2013-05-06 02:26:00,
2013-05-05 22:31:00,48.1,44.0,30.92,East,91,5.4,5.4,86,0.00,,,0.00,TxWx,2013-05-06 02:31:00,
2013-05-05 22:36:00,48.3,44.0,30.92,East,90,4.2,4.2,86,0.00,,,0.00,TxWx,2013-05-06 02:36:00,
2013-05-05 22:42:00,48.3,44.0,30.92,East,90,3.6,4.8,86,0.00,,,0.00,TxWx,2013-05-06 02:42:00,
2013-05-05 22:47:00,48.3,44.0,30.92,East,93,3.3,3.6,86,0.00,,,0.00,TxWx,2013-05-06 02:47:00,
2013-05-05 22:52:00,48.3,44.0,30.92,East,92,3.3,3.9,86,0.00,,,0.00,TxWx,2013-05-06 02:52:00,
2013-05-05 22:57:00,48.2,44.0,30.92,East,92,1.2,1.5,86,0.00,,,0.00,TxWx,2013-05-06 02:57:00,
2013-05-05 23:03:00,48.1,44.0,30.91,East,89,3.9,3.9,86,0.00,,,0.00,TxWx,2013-05-06 03:03:00,
2013-05-05 23:08:00,48.3,44.0,30.91,East,87,1.2,1.5,86,0.00,,,0.00,TxWx,2013-05-06 03:08:00,
2013-05-05 23:13:00,48.3,44.0,30.91,East,90,3.3,3.3,85,0.00,,,0.00,TxWx,2013-05-06 03:13:00,
2013-05-05 23:18:00,48.4,44.0,30.91,East,85,5.7,5.7,85,0.00,,,0.00,TxWx,2013-05-06 03:18:00,
2013-05-05 23:23:00,48.4,43.0,30.91,ESE,109,3.6,4.8,84,0.00,,,0.00,TxWx,2013-05-06 03:23:00,
2013-05-05 23:29:00,48.5,43.0,30.91,East,90,1.5,1.5,84,0.00,,,0.00,TxWx,2013-05-06 03:29:00,
2013-05-05 23:34:00,48.2,43.0,30.91,East,84,5.7,6.0,84,0.00,,,0.00,TxWx,2013-05-06 03:34:00,
2013-05-05 23:39:00,48.2,43.0,30.91,East,84,4.5,4.5,84,0.00,,,0.00,TxWx,2013-05-06 03:39:00,
2013-05-05 23:44:00,48.2,43.0,30.91,East,87,3.0,3.3,84,0.00,,,0.00,TxWx,2013-05-06 03:44:00,
2013-05-05 23:49:00,48.3,43.0,30.91,East,84,7.2,7.2,84,0.00,,,0.00,TxWx,2013-05-06 03:49:00,
2013-05-05 23:55:00,48.4,43.0,30.91,East,95,3.0,3.3,84,0.00,,,0.00,TxWx,2013-05-06 03:55:00,